Regional Weather Roundup
Issued by NWS Goodland, KS

Home | Current Version | Previous Version | Text Only | Print | Product List | Glossary Off
Versions: 1 2 3 4 5 6 7 8 9 10 11 12 13 14 15 16 17 18 19 20 21 22 23 24 25 26 27 28 29 30 31 32 33 34 35 36 37 38 39 40 41 42 43 44 45 46 47 48 49 50

111
ASUS43 KGLD 291559
RWRGLD

GOODLAND FORECAST AREA HOURLY WEATHER ROUNDUP
NATIONAL WEATHER SERVICE GOODLAND KS
1000 AM MDT THU SEP 29 2016

...OFFICIAL OBSERVATIONS...

CITY           SKY/WX    TMP DP  RH WIND       PRES   REMARKS
GOODLAND KS    LGT RAIN  62  43  49 S16       30.42S
HILL CITY KS   SUNNY     59  47  64 VRB5      30.46F
IMPERIAL NEB   SUNNY     62  42  47 SE16      30.41F
MCCOOK NEB     SUNNY     59  45  59 E6        30.44F
AKRON CO       SUNNY     65  41  41 S18       30.38S
BURLINGTON CO  SUNNY     64  37  36 S20       30.42R
LIMON CO       SUNNY     60  43  53 S13       30.43S
$$

...UNOFFICIAL OBSERVATIONS...

CITY           SKY/WX    TMP DP  RH WIND       PRES   REMARKS
COLBY KS       SUNNY     63  46  55 SE12      30.45S
LENORA KS        N/A     58  32  37 MISG        N/A
NORTON KS      SUNNY     61  41  48 SE3       30.45F
SHARON SPRINGS   N/A     62  46  56 SE13        N/A
KIT CARSON CO    N/A     61  40  46 MISG        N/A
$$




USA.gov is the U.S. government's official web portal to all federal, state and local government web resources and services.